Time,TemperatureF,DewpointF,PressureIn,WindDirection,WindDirectionDegrees,WindSpeedMPH,WindSpeedGustMPH,Humidity,HourlyPrecipIn,Conditions,Clouds,dailyrainin,SoftwareType,DateUTC
2013-01-13 00:03:00,69.0,66.0,30.10,ENE,72,4.0,5.0,91,-99.99,,,-99.99,,2013-01-13 05:03:00,
2013-01-13 00:12:00,68.0,66.0,30.09,SSE,150,70.0,72.0,91,-99.99,,,-99.99,,2013-01-13 05:12:00,
2013-01-13 00:23:00,68.0,66.0,30.09,SSE,150,70.0,72.0,91,-99.99,,,-99.99,,2013-01-13 05:23:00,
2013-01-13 00:32:00,68.0,66.0,30.09,East,82,4.0,9.0,93,-99.99,,,-99.99,,2013-01-13 05:32:00,
2013-01-13 00:42:00,68.0,66.0,30.09,East,99,3.0,10.0,94,-99.99,,,-99.99,,2013-01-13 05:42:00,
2013-01-13 00:53:00,68.0,66.0,30.09,East,85,4.0,6.0,94,-99.99,,,-99.99,,2013-01-13 05:53:00,
2013-01-13 01:03:00,68.0,66.0,30.09,East,85,4.0,6.0,94,-99.99,,,-99.99,,2013-01-13 06:03:00,
2013-01-13 01:12:00,68.0,66.0,30.09,East,79,4.0,6.0,94,-99.99,,,-99.99,,2013-01-13 06:12:00,
2013-01-13 01:22:00,68.0,66.0,30.09,East,79,4.0,6.0,94,-99.99,,,-99.99,,2013-01-13 06:22:00,
2013-01-13 01:32:00,68.0,66.0,30.09,East,82,4.0,7.0,92,-99.99,,,-99.99,,2013-01-13 06:32:00,
2013-01-13 01:42:00,69.0,66.0,30.09,ENE,72,4.0,6.0,90,-99.99,,,-99.99,,2013-01-13 06:42:00,
2013-01-13 01:52:00,69.0,66.0,30.08,ENE,72,5.0,8.0,90,-99.99,,,-99.99,,2013-01-13 06:52:00,
2013-01-13 02:02:00,69.0,66.0,30.08,ENE,72,5.0,8.0,90,-99.99,,,-99.99,,2013-01-13 07:02:00,
2013-01-13 02:12:00,70.0,66.0,30.08,East,83,5.0,8.0,88,-99.99,,,-99.99,,2013-01-13 07:12:00,
2013-01-13 02:22:00,70.0,66.0,30.08,East,83,5.0,8.0,88,-99.99,,,-99.99,,2013-01-13 07:22:00,
2013-01-13 02:32:00,70.0,66.0,30.08,East,87,5.0,7.0,88,-99.99,,,-99.99,,2013-01-13 07:32:00,
2013-01-13 02:42:00,70.0,67.0,30.08,East,93,5.0,7.0,88,-99.99,,,-99.99,,2013-01-13 07:42:00,
2013-01-13 02:53:00,71.0,67.0,30.08,ESE,108,5.0,7.0,88,-99.99,,,-99.99,,2013-01-13 07:53:00,
2013-01-13 03:02:00,71.0,67.0,30.08,ESE,108,5.0,7.0,88,-99.99,,,-99.99,,2013-01-13 08:02:00,
2013-01-13 03:12:00,71.0,68.0,30.08,SSE,159,5.0,32.0,89,-99.99,,,-99.99,,2013-01-13 08:12:00,
2013-01-13 03:22:00,71.0,68.0,30.08,SSE,159,5.0,32.0,89,-99.99,,,-99.99,,2013-01-13 08:22:00,
2013-01-13 03:32:00,71.0,68.0,30.08,SSE,159,5.0,32.0,89,-99.99,,,-99.99,,2013-01-13 08:32:00,
2013-01-13 03:42:00,71.0,68.0,30.07,SE,138,5.0,7.0,89,-99.99,,,-99.99,,2013-01-13 08:42:00,
2013-01-13 03:53:00,71.0,67.0,30.07,SE,129,4.0,7.0,89,-99.99,,,-99.99,,2013-01-13 08:53:00,
2013-01-13 04:02:00,71.0,67.0,30.07,SE,129,4.0,7.0,89,-99.99,,,-99.99,,2013-01-13 09:02:00,
2013-01-13 04:12:00,71.0,67.0,30.07,SE,125,4.0,15.0,88,-99.99,,,-99.99,,2013-01-13 09:12:00,
2013-01-13 04:22:00,71.0,67.0,30.07,SE,125,4.0,15.0,88,-99.99,,,-99.99,,2013-01-13 09:22:00,
2013-01-13 04:32:00,71.0,66.0,30.06,ESE,122,7.0,11.0,85,-99.99,,,-99.99,,2013-01-13 09:32:00,
2013-01-13 04:42:00,71.0,66.0,30.07,ESE,121,6.0,9.0,82,-99.99,,,-99.99,,2013-01-13 09:42:00,
2013-01-13 04:53:00,71.0,65.0,30.07,ESE,123,7.0,12.0,81,-99.99,,,-99.99,,2013-01-13 09:53:00,
2013-01-13 05:03:00,71.0,65.0,30.07,ESE,123,7.0,12.0,81,-99.99,,,-99.99,,2013-01-13 10:03:00,
2013-01-13 05:12:00,71.0,65.0,30.07,ESE,118,7.0,10.0,80,-99.99,,,-99.99,,2013-01-13 10:12:00,
2013-01-13 05:22:00,71.0,65.0,30.07,ESE,118,7.0,10.0,80,-99.99,,,-99.99,,2013-01-13 10:22:00,
2013-01-13 05:32:00,71.0,65.0,30.07,ESE,114,6.0,8.0,81,-99.99,,,-99.99,,2013-01-13 10:32:00,
2013-01-13 05:42:00,70.0,65.0,30.07,ESE,107,6.0,10.0,81,-99.99,,,-99.99,,2013-01-13 10:42:00,
2013-01-13 05:53:00,70.0,64.0,30.07,ESE,118,7.0,10.0,79,-99.99,,,-99.99,,2013-01-13 10:53:00,
2013-01-13 06:02:00,70.0,64.0,30.07,ESE,118,7.0,10.0,79,-99.99,,,-99.99,,2013-01-13 11:02:00,
2013-01-13 06:12:00,70.0,64.0,30.07,ESE,121,7.0,9.0,78,-99.99,,,-99.99,,2013-01-13 11:12:00,
2013-01-13 06:22:00,70.0,64.0,30.07,ESE,121,7.0,9.0,78,-99.99,,,-99.99,,2013-01-13 11:22:00,
2013-01-13 06:33:00,70.0,64.0,30.07,ESE,121,7.0,9.0,78,-99.99,,,-99.99,,2013-01-13 11:33:00,
2013-01-13 06:42:00,70.0,64.0,30.07,ESE,114,5.0,10.0,81,-99.99,,,-99.99,,2013-01-13 11:42:00,
2013-01-13 06:53:00,70.0,64.0,30.07,SE,124,6.0,9.0,81,-99.99,,,-99.99,,2013-01-13 11:53:00,
2013-01-13 07:03:00,70.0,64.0,30.07,SE,124,6.0,9.0,81,-99.99,,,-99.99,,2013-01-13 12:03:00,
2013-01-13 07:12:00,70.0,64.0,30.07,ESE,119,6.0,10.0,81,-99.99,,,-99.99,,2013-01-13 12:12:00,
2013-01-13 07:22:00,70.0,64.0,30.07,ESE,119,6.0,10.0,81,-99.99,,,-99.99,,2013-01-13 12:22:00,
2013-01-13 07:33:00,69.0,64.0,30.07,ESE,116,5.0,8.0,82,-99.99,,,-99.99,,2013-01-13 12:33:00,
2013-01-13 07:42:00,69.0,64.0,30.07,ESE,111,5.0,7.0,83,-99.99,,,-99.99,,2013-01-13 12:42:00,
2013-01-13 07:53:00,69.0,64.0,30.07,ESE,109,4.0,6.0,84,-99.99,,,-99.99,,2013-01-13 12:53:00,
2013-01-13 08:03:00,69.0,64.0,30.07,ESE,109,4.0,6.0,84,-99.99,,,-99.99,,2013-01-13 13:03:00,
2013-01-13 08:12:00,69.0,65.0,30.07,ESE,108,5.0,8.0,84,-99.99,,,-99.99,,2013-01-13 13:12:00,
2013-01-13 08:22:00,69.0,65.0,30.07,ESE,108,5.0,8.0,84,-99.99,,,-99.99,,2013-01-13 13:22:00,
2013-01-13 08:33:00,71.0,65.0,30.08,ESE,115,5.0,8.0,81,-99.99,,,-99.99,,2013-01-13 13:33:00,
2013-01-13 08:42:00,72.0,65.0,30.08,ESE,117,5.0,8.0,79,-99.99,,,-99.99,,2013-01-13 13:42:00,
2013-01-13 08:53:00,73.0,66.0,30.08,ESE,120,6.0,10.0,77,-99.99,,,-99.99,,2013-01-13 13:53:00,
2013-01-13 09:03:00,73.0,66.0,30.08,ESE,120,6.0,10.0,77,-99.99,,,-99.99,,2013-01-13 14:03:00,
2013-01-13 09:12:00,73.0,66.0,30.08,ESE,122,6.0,9.0,78,-99.99,,,-99.99,,2013-01-13 14:12:00,
2013-01-13 09:22:00,73.0,66.0,30.08,ESE,122,6.0,9.0,78,-99.99,,,-99.99,,2013-01-13 14:22:00,
2013-01-13 09:33:00,73.0,66.0,30.08,ESE,122,6.0,9.0,78,-99.99,,,-99.99,,2013-01-13 14:33:00,
2013-01-13 09:43:00,74.0,67.0,30.09,ESE,123,8.0,12.0,78,-99.99,,,-99.99,,2013-01-13 14:43:00,
2013-01-13 09:53:00,75.0,67.0,30.09,SE,124,9.0,16.0,76,-99.99,,,-99.99,,2013-01-13 14:53:00,
2013-01-13 10:03:00,75.0,67.0,30.09,SE,124,9.0,16.0,76,-99.99,,,-99.99,,2013-01-13 15:03:00,
2013-01-13 10:13:00,75.0,67.0,30.10,ESE,121,11.0,20.0,75,-99.99,,,-99.99,,2013-01-13 15:13:00,
2013-01-13 10:23:00,75.0,67.0,30.10,ESE,121,11.0,20.0,75,-99.99,,,-99.99,,2013-01-13 15:23:00,
2013-01-13 10:33:00,77.0,68.0,30.10,SE,142,12.0,18.0,72,-99.99,,,-99.99,,2013-01-13 15:33:00,
2013-01-13 10:43:00,77.0,68.0,30.10,SE,142,12.0,18.0,72,-99.99,,,-99.99,,2013-01-13 15:43:00,
2013-01-13 10:53:00,76.0,68.0,30.09,SE,130,10.0,23.0,76,-99.99,,,-99.99,,2013-01-13 15:53:00,
2013-01-13 11:04:00,76.0,68.0,30.09,SE,130,10.0,23.0,76,-99.99,,,-99.99,,2013-01-13 16:04:00,
2013-01-13 11:13:00,78.0,68.0,30.09,SE,143,13.0,21.0,70,-99.99,,,-99.99,,2013-01-13 16:13:00,
2013-01-13 11:23:00,78.0,68.0,30.09,SE,143,13.0,21.0,70,-99.99,,,-99.99,,2013-01-13 16:23:00,
2013-01-13 11:33:00,78.0,68.0,30.09,SE,143,13.0,21.0,70,-99.99,,,-99.99,,2013-01-13 16:33:00,
2013-01-13 11:43:00,78.0,67.0,30.10,SE,141,13.0,19.0,68,-99.99,,,-99.99,,2013-01-13 16:43:00,
2013-01-13 11:53:00,78.0,67.0,30.10,SE,145,11.0,18.0,69,-99.99,,,-99.99,,2013-01-13 16:53:00,
2013-01-13 12:03:00,78.0,67.0,30.10,SE,145,11.0,18.0,69,-99.99,,,-99.99,,2013-01-13 17:03:00,
2013-01-13 12:12:00,78.0,67.0,30.11,SE,146,10.0,16.0,68,-99.99,,,-99.99,,2013-01-13 17:12:00,
2013-01-13 12:22:00,78.0,67.0,30.11,SE,146,10.0,16.0,68,-99.99,,,-99.99,,2013-01-13 17:22:00,
2013-01-13 12:33:00,78.0,67.0,30.11,SE,146,10.0,16.0,68,-99.99,,,-99.99,,2013-01-13 17:33:00,
2013-01-13 12:43:00,79.0,67.0,30.11,SE,142,9.0,16.0,66,-99.99,,,-99.99,,2013-01-13 17:43:00,
2013-01-13 12:53:00,79.0,66.0,30.10,SE,134,9.0,14.0,64,-99.99,,,-99.99,,2013-01-13 17:53:00,
2013-01-13 13:03:00,79.0,66.0,30.10,SE,134,9.0,14.0,64,-99.99,,,-99.99,,2013-01-13 18:03:00,
2013-01-13 13:12:00,78.0,66.0,30.10,SE,139,9.0,14.0,65,-99.99,,,-99.99,,2013-01-13 18:12:00,
2013-01-13 13:23:00,78.0,66.0,30.10,SE,139,9.0,14.0,65,-99.99,,,-99.99,,2013-01-13 18:23:00,
2013-01-13 13:33:00,77.0,66.0,30.10,SE,141,8.0,15.0,68,-99.99,,,-99.99,,2013-01-13 18:33:00,
2013-01-13 13:43:00,79.0,66.0,30.09,SE,132,8.0,13.0,64,-99.99,,,-99.99,,2013-01-13 18:43:00,
2013-01-13 13:53:00,79.0,66.0,30.09,SE,128,9.0,13.0,63,-99.99,,,-99.99,,2013-01-13 18:53:00,
2013-01-13 14:03:00,79.0,66.0,30.09,SE,128,9.0,13.0,63,-99.99,,,-99.99,,2013-01-13 19:03:00,
2013-01-13 14:12:00,79.0,66.0,30.09,SE,140,8.0,14.0,64,-99.99,,,-99.99,,2013-01-13 19:12:00,
2013-01-13 14:23:00,79.0,66.0,30.09,SE,140,8.0,14.0,64,-99.99,,,-99.99,,2013-01-13 19:23:00,
2013-01-13 14:33:00,79.0,66.0,30.09,SE,131,8.0,14.0,64,-99.99,,,-99.99,,2013-01-13 19:33:00,
2013-01-13 14:43:00,79.0,66.0,30.08,ESE,123,8.0,14.0,62,-99.99,,,-99.99,,2013-01-13 19:43:00,
2013-01-13 14:53:00,79.0,65.0,30.08,SE,133,8.0,12.0,61,-99.99,,,-99.99,,2013-01-13 19:53:00,
2013-01-13 15:03:00,79.0,65.0,30.08,SE,133,8.0,12.0,61,-99.99,,,-99.99,,2013-01-13 20:03:00,
2013-01-13 15:12:00,80.0,66.0,30.08,SE,144,9.0,15.0,62,-99.99,,,-99.99,,2013-01-13 20:12:00,
2013-01-13 15:22:00,80.0,66.0,30.08,SE,144,9.0,15.0,62,-99.99,,,-99.99,,2013-01-13 20:22:00,
2013-01-13 15:33:00,79.0,66.0,30.08,SE,145,8.0,16.0,63,-99.99,,,-99.99,,2013-01-13 20:33:00,
2013-01-13 15:43:00,77.0,65.0,30.08,SE,139,8.0,13.0,65,-99.99,,,-99.99,,2013-01-13 20:43:00,
2013-01-13 15:53:00,78.0,65.0,30.08,SE,125,9.0,13.0,63,-99.99,,,-99.99,,2013-01-13 20:53:00,
2013-01-13 16:03:00,78.0,65.0,30.08,SE,125,9.0,13.0,63,-99.99,,,-99.99,,2013-01-13 21:03:00,
2013-01-13 16:13:00,78.0,65.0,30.09,SE,128,9.0,14.0,64,-99.99,,,-99.99,,2013-01-13 21:13:00,
2013-01-13 16:23:00,78.0,65.0,30.09,SE,128,9.0,14.0,64,-99.99,,,-99.99,,2013-01-13 21:23:00,
2013-01-13 16:33:00,78.0,65.0,30.09,SE,135,8.0,14.0,63,-99.99,,,-99.99,,2013-01-13 21:33:00,
2013-01-13 16:43:00,78.0,65.0,30.10,SE,131,9.0,13.0,64,-99.99,,,-99.99,,2013-01-13 21:43:00,
2013-01-13 16:53:00,77.0,65.0,30.10,ESE,123,9.0,16.0,65,-99.99,,,-99.99,,2013-01-13 21:53:00,
2013-01-13 17:03:00,77.0,65.0,30.10,ESE,123,9.0,16.0,65,-99.99,,,-99.99,,2013-01-13 22:03:00,
2013-01-13 17:13:00,77.0,65.0,30.10,SE,126,9.0,13.0,66,-99.99,,,-99.99,,2013-01-13 22:13:00,
2013-01-13 17:23:00,77.0,65.0,30.10,SE,126,9.0,13.0,66,-99.99,,,-99.99,,2013-01-13 22:23:00,
2013-01-13 17:33:00,76.0,65.0,30.11,ESE,121,9.0,14.0,68,-99.99,,,-99.99,,2013-01-13 22:33:00,
2013-01-13 17:43:00,75.0,66.0,30.11,SE,125,9.0,14.0,71,-99.99,,,-99.99,,2013-01-13 22:43:00,
2013-01-13 17:53:00,74.0,65.0,30.11,SE,124,7.0,13.0,73,-99.99,,,-99.99,,2013-01-13 22:53:00,
2013-01-13 18:03:00,74.0,65.0,30.11,SE,124,7.0,13.0,73,-99.99,,,-99.99,,2013-01-13 23:03:00,
2013-01-13 18:12:00,74.0,65.0,30.11,ESE,118,8.0,12.0,73,-99.99,,,-99.99,,2013-01-13 23:12:00,
2013-01-13 18:23:00,74.0,65.0,30.11,ESE,118,8.0,12.0,73,-99.99,,,-99.99,,2013-01-13 23:23:00,
2013-01-13 18:33:00,74.0,65.0,30.11,ESE,120,7.0,11.0,73,-99.99,,,-99.99,,2013-01-13 23:33:00,
2013-01-13 18:43:00,73.0,65.0,30.12,ESE,120,5.0,8.0,75,-99.99,,,-99.99,,2013-01-13 23:43:00,
2013-01-13 18:53:00,72.0,65.0,30.12,ESE,119,4.0,6.0,77,-99.99,,,-99.99,,2013-01-13 23:53:00,
2013-01-13 19:03:00,72.0,65.0,30.12,ESE,119,4.0,6.0,77,-99.99,,,-99.99,,2013-01-14 00:03:00,
2013-01-13 19:13:00,72.0,65.0,30.12,ESE,123,4.0,7.0,79,-99.99,,,-99.99,,2013-01-14 00:13:00,
2013-01-13 19:23:00,72.0,65.0,30.12,ESE,123,4.0,7.0,79,-99.99,,,-99.99,,2013-01-14 00:23:00,
2013-01-13 19:33:00,71.0,65.0,30.12,ESE,118,3.0,7.0,79,-99.99,,,-99.99,,2013-01-14 00:33:00,
2013-01-13 19:43:00,71.0,66.0,30.11,ESE,105,3.0,4.0,82,-99.99,,,-99.99,,2013-01-14 00:43:00,
2013-01-13 19:53:00,71.0,65.0,30.12,ESE,115,2.0,4.0,82,-99.99,,,-99.99,,2013-01-14 00:53:00,
2013-01-13 20:03:00,71.0,65.0,30.12,ESE,115,2.0,4.0,82,-99.99,,,-99.99,,2013-01-14 01:03:00,
2013-01-13 20:13:00,71.0,66.0,30.12,East,100,2.0,4.0,81,-99.99,,,-99.99,,2013-01-14 01:13:00,
2013-01-13 20:22:00,71.0,66.0,30.12,East,100,2.0,4.0,81,-99.99,,,-99.99,,2013-01-14 01:22:00,
2013-01-13 20:33:00,72.0,66.0,30.11,ESE,115,4.0,7.0,81,-99.99,,,-99.99,,2013-01-14 01:33:00,
2013-01-13 20:42:00,72.0,65.0,30.11,SE,124,6.0,11.0,77,-99.99,,,-99.99,,2013-01-14 01:42:00,
2013-01-13 20:53:00,73.0,64.0,30.11,ESE,118,7.0,12.0,74,-99.99,,,-99.99,,2013-01-14 01:53:00,
2013-01-13 21:03:00,73.0,64.0,30.11,ESE,118,7.0,12.0,74,-99.99,,,-99.99,,2013-01-14 02:03:00,
2013-01-13 21:12:00,72.0,64.0,30.10,ESE,116,6.0,10.0,74,-99.99,,,-99.99,,2013-01-14 02:12:00,
2013-01-13 21:22:00,72.0,64.0,30.10,ESE,116,6.0,10.0,74,-99.99,,,-99.99,,2013-01-14 02:22:00,
2013-01-13 21:33:00,72.0,64.0,30.10,ESE,116,6.0,10.0,74,-99.99,,,-99.99,,2013-01-14 02:33:00,
2013-01-13 21:42:00,72.0,64.0,30.09,ESE,117,6.0,9.0,77,-99.99,,,-99.99,,2013-01-14 02:42:00,
2013-01-13 21:53:00,72.0,64.0,30.09,ESE,112,6.0,9.0,77,-99.99,,,-99.99,,2013-01-14 02:53:00,
2013-01-13 22:03:00,72.0,64.0,30.09,ESE,112,6.0,9.0,77,-99.99,,,-99.99,,2013-01-14 03:03:00,
2013-01-13 22:12:00,72.0,64.0,30.09,ESE,114,7.0,13.0,74,-99.99,,,-99.99,,2013-01-14 03:12:00,
2013-01-13 22:22:00,72.0,64.0,30.09,ESE,114,7.0,13.0,74,-99.99,,,-99.99,,2013-01-14 03:22:00,
2013-01-13 22:33:00,73.0,63.0,30.09,ESE,117,6.0,10.0,71,-99.99,,,-99.99,,2013-01-14 03:33:00,
2013-01-13 22:42:00,73.0,64.0,30.10,ESE,113,7.0,11.0,71,-99.99,,,-99.99,,2013-01-14 03:42:00,
2013-01-13 22:53:00,73.0,64.0,30.10,ESE,118,7.0,11.0,71,-99.99,,,-99.99,,2013-01-14 03:53:00,
2013-01-13 23:03:00,73.0,64.0,30.10,ESE,118,7.0,11.0,71,-99.99,,,-99.99,,2013-01-14 04:03:00,
2013-01-13 23:12:00,74.0,64.0,30.11,ESE,120,9.0,16.0,70,-99.99,,,-99.99,,2013-01-14 04:12:00,
2013-01-13 23:22:00,74.0,64.0,30.11,ESE,120,9.0,16.0,70,-99.99,,,-99.99,,2013-01-14 04:22:00,
2013-01-13 23:32:00,74.0,64.0,30.10,ESE,122,9.0,14.0,70,-99.99,,,-99.99,,2013-01-14 04:32:00,
2013-01-13 23:42:00,73.0,63.0,30.10,ESE,117,8.0,13.0,70,-99.99,,,-99.99,,2013-01-14 04:42:00,
2013-01-13 23:53:00,73.0,63.0,30.10,ESE,112,6.0,10.0,72,-99.99,,,-99.99,,2013-01-14 04:53:00,